World > North America > United States > Washington

Burton, Washington Regional Weather

Lat: 47.39N, Lon: 122.46W
Wx Zone: WAZ558Web Search

Helpful Tip: Type the letters wx in the search engine next time you need to find us.

Feedback


°F Click to change Burton hourly weather to Imperial units.Click to change Burton hourly weather to Metric units. °C
Burton Weather Map
UTC Time: 4/10/2021, 18:39
Your Time:

Burton, WA Regional Weather

Expires:202104101900;;342494
ASUS46 KSEW 101820
RWRWA 

WASHINGTON REGIONAL WEATHER ROUNDUP
NATIONAL WEATHER SERVICE SEATTLE WA
1100 AM PDT SAT APR 10 2021

NOTE:"FAIR" INDICATES FEW OR NO CLOUDS BELOW 12,000 FEET WITH NO 
SIGNIFICANT WEATHER AND/OR OBSTRUCTIONS TO VISIBILITY.


WAZ507-509-555>559-101900-
SEATTLE, TACOMA, EVERETT, AND VICINITY
  
CITY           SKY/WX    TMP DP  RH WIND       PRES   REMARKS
EVERETT        MOSUNNY   44  28  53 W9        30.20R                  
6HR MIN TEMP:  36; 6HR MAX TEMP:  44;                                

BOEING FIELD   MOSUNNY   46  33  60 VRB3      30.22R                  
6HR MIN TEMP:  39; 6HR MAX TEMP:  46;                                

RENTON         MOSUNNY   48  33  56 VRB5      30.21R                  
6HR MIN TEMP:  40; 6HR MAX TEMP:  48;                                

SEATAC AIRPORT PTSUNNY   44  30  57 SW8       30.20R                  
6HR MIN TEMP:  40; 6HR MAX TEMP:  46;                                

JBLM-MCCHORD   MOSUNNY   45  29  52 W17G23    30.21R                  
6HR MIN TEMP:  37; 6HR MAX TEMP:  45;                                

PUYALLUP       PTSUNNY   45  32  61 W9G20     30.22R                  
BREMERTON      PTSUNNY   44  28  53 CALM      30.20R                  
6HR MIN TEMP:  33; 6HR MAX TEMP:  48;                                

JBLM-FT LEWIS  MOSUNNY   45  28  52 SW14G25   30.20R                  
6HR MIN TEMP:  37; 6HR MAX TEMP:  45; 6HR PCP: TRACE;                

TACOMA NARROWS MOSUNNY   44  29  55 W9G20     30.22R                  
6HR MIN TEMP:  37; 6HR MAX TEMP:  45;                                

$$
 

SKY/WX - Weather  TMP - Temperature  DP - Dew Point  RH - Relative Humidity
WIND - Wind Direction/Speed PRES - Barometric Pressure VSB - Visibility
WCI - Wind Chill Index E13G22 Wind - East Wind 13 mph/Gusts of 22 mph